Home   Weather   Schwerin   Past weeks
Flag for Germany

Past Weather in Schwerin, Mecklenburg-Western Pomerania, Germany — Yesterday and Last 2 Weeks

Now
55 °F

Passing clouds.


Feels Like: 54 °F
Forecast: 69 / 53 °F
Wind: 6 mph from Northeast

Location: Luebeck-Blankensee

Current Time: May 19, 2019 at 11:13:12 pm

Latest Report: May 19, 2019 at 8:50 pm


Visibility: 6 mi

Pressure: 29.71 "Hg

Humidity: 94%

Dew Point: 54 °F

Location of SchwerinLocation

Past Weather in Schwerin — Graph

°F

Schwerin Temperature Yesterday

Maximum temperature yesterday: 72 °F (at 4:20 pm)
Minimum temperature yesterday: 54 °F (at 7:20 am)
Average temperature yesterday: 65 °F

High & Low Weather Summary for the Past Weeks

 TemperatureHumidityPressure
High72 °F (May 18, 4:20 pm)100% (May 9, 6:50 am)30.63 "Hg (May 9, 6:50 am)
Low34 °F (May 5, 7:20 am)28% (May 15, 6:20 pm)29.42 "Hg (May 9, 6:50 am)
Average54 °F62%30.01 "Hg
* Reported May 4 8:20 pm — May 19 8:50 pm, Schwerin. Weather by CustomWeather, © 2019

Note: Actual official high and low records may vary slightly from our data, if they occured in-between our weather recording intervals... More about our weather records

Advertising

Schwerin Weather History for the Previous 24 Hours

Scroll right to see more
 ConditionsComfort  
Time TempWeatherWind HumidityBarometerVisibility
8:50 pm
Sun, May 19
55 °FPassing clouds.6 mph94%29.71 "Hg6 mi
8:20 pm55 °FPassing clouds.10 mph94%29.71 "HgN/A
7:50 pm55 °FPassing clouds.10 mph94%29.71 "HgN/A
7:20 pm57 °FSunny.13 mph88%29.71 "Hg10 mi
6:50 pm59 °FSunny.14 mph82%29.71 "Hg10 mi
6:20 pm61 °FSunny.13 mph77%29.71 "Hg10 mi
5:50 pm61 °FSunny.12 mph77%29.71 "Hg10 mi
5:20 pm63 °FSunny.12 mph73%29.71 "Hg10 mi
4:50 pm61 °FSunny.14 mph77%29.71 "Hg10 mi
3:50 pm63 °FSunny.14 mph73%29.71 "Hg10 mi
3:20 pm64 °FSunny.14 mph68%29.71 "Hg10 mi
2:50 pm64 °FPassing clouds.10 mph73%29.74 "HgN/A
2:20 pm64 °FPassing clouds.10 mph73%29.74 "HgN/A
1:50 pm64 °FPassing clouds.10 mph73%29.74 "HgN/A
1:20 pm63 °FSunny.9 mph73%29.74 "Hg10 mi
12:50 pm63 °FPassing clouds.7 mph77%29.74 "HgN/A
12:20 pm61 °FPassing clouds.7 mph77%29.74 "HgN/A
11:50 am59 °FPassing clouds.7 mph82%29.74 "Hg6 mi
11:20 am57 °FScattered clouds.8 mph88%29.77 "HgN/A
10:50 am57 °FPartly sunny.8 mph88%29.77 "Hg5 mi
10:20 am55 °FPartly sunny.7 mph100%29.77 "Hg4 mi
9:50 am55 °FFog.7 mph94%29.77 "Hg2 mi
9:20 am54 °FFog.7 mph100%29.77 "Hg2 mi
8:50 am54 °FFog.8 mph94%29.77 "Hg1 mi
8:20 am54 °FFog.7 mph94%29.74 "Hg1 mi
7:50 am52 °FFog.7 mph100%29.77 "Hg1 mi
7:20 am52 °FFog.6 mph100%29.77 "Hg1 mi
Weather by CustomWeather, © 2019

See weather overview